Regional Weather Roundup
Issued by NWS State College, PA

Home | Current Version | Previous Version | Text Only | Print | Product List | Glossary On
Versions: 1 2 3 4 5 6 7 8 9 10 11 12 13 14 15 16 17 18 19 20 21 22 23 24 25 26 27 28 29 30 31 32 33 34 35 36 37 38 39 40 41 42 43 44 45 46 47 48 49 50
000
ASUS41 KCTP 072103
RWRCTP

REGIONAL WEATHER ROUNDUP
NATIONAL WEATHER SERVICE STATE COLLEGE PA
400 PM EST WED DEC 07 2016

Note: "fair" indicates few or no clouds below 12,000 feet with no
significant weather and/or obstructions to visibility.

* = STATION THAT DOES NOT REPORT PRECIPITATION /E.G. RAIN...SNOW...ETC/
    THUNDER OR FOG.

PAZ002>004-007>009-013>016-020>023-029>032-072200-
WESTERN PENNSYLVANIA

CITY           SKY/WX    TMP DP  RH WIND       PRES   REMARKS
ERIE           CLOUDY    38  27  64 W7        30.02S
MEADVILLE      CLEAR     35  21  56 SW8       30.00F
FRANKLIN*        N/A     36  21  55 W9        30.03S
NEW CASTLE     FAIR      37  22  54 W9        30.06R
BEAVER COUNTY  CLEAR     37  23  56 W10       30.04R
BUTLER*        CLOUDY    37  21  52 SW10      30.07R
PITTSBURGH INT CLOUDY    40  22  48 W7G17     30.05S
PITTSBURGH     MOCLDY    39  19  44 W13       30.05S
INDIANA*       PTCLDY    39  23  52 W9G17     30.05S
LATROBE        MOCLDY    39  19  45 W7        30.06S
WASHINGTON CO* CLOUDY    41  19  42 SW7       30.06S
$$

PAZ004>006-010>012-017>019-024>028-033>037-041-042-045-046-049>053-072200-
CENTRAL PENNSYLVANIA

CITY           SKY/WX    TMP DP  RH WIND       PRES   REMARKS
BRADFORD       CLEAR     36  23  59 W5        29.96R
DUBOIS         MOCLDY    37  18  46 W13       29.99R
CLEARFIELD     CLEAR     40  18  41 W9        30.00R
JOHNSTOWN      CLEAR     36  17  46 W13G23    29.99R
ALTOONA        CLEAR     41  18  39 W9G17     30.02R
STATE COLLEGE  CLEAR     41  23  48 W7        30.00R
WILLIAMSPORT   PTCLDY    42  28  57 SW5       30.01R
SELINSGROVE    PTCLDY    45  29  53 VRB3      30.02R
FT INDIANTOWN  CLOUDY    44  29  54 SW5       30.02R
CAPITAL CITY   PTCLDY    46  30  53 SW3       30.03R
HARRISBURG     CLOUDY    46  32  58 W3        30.02R
YORK           PTCLDY    45  31  58 W3        30.03R
$$

PAZ038>040-043-044-047-048-054-055-060>062-067>071-072200-
EASTERN PENNSYLVANIA

CITY           SKY/WX    TMP DP  RH WIND       PRES   REMARKS
SCRANTON       CLOUDY    42  34  73 SW8       29.97R
MOUNT POCONO   CLOUDY    36  30  79 W6        29.95R
ALLENTOWN      CLEAR     44  33  65 CALM      30.01R
QUAKERTOWN*    PTCLDY    45  36  70 W5        30.02R
READING        CLEAR     46  31  55 W7        30.02R
LANCASTER      CLEAR     45  31  58 W10       30.03R
COATESVILLE    CLEAR     43  34  70 W8        30.03R
POTTSTOWN      CLEAR     45  34  65 W7        30.03R
BLUE BELL      CLEAR     43  36  75 NW5       30.01R
DOYLESTOWN     PTCLDY    46  36  68 W5        30.00R
WILLOW GROVE   NOT AVBL
NORTH PHILA    CLEAR     46  36  68 NW5       30.03R
PHILADELPHIA   PTCLDY    47  35  63 W9        30.03R
$$




USA.gov is the U.S. government's official web portal to all federal, state and local government web resources and services.